DELTA 1 DEB, 9570

Orbit data source: Space-Track

DELTA 1 DEB, 9570 is space debris in SSO originally from a launch on Tue, 06 Nov 1973 UTC launched from the Air Force Western Test Range (AFWTR). Debris objects in space refer to the collection of defunct objects orbiting the Earth. Examples of debris include non-operational satellites, rocket bodies, and fragments generated from explosions, collisions, or faulty payload assembly.

Loading next visibility...
Identifier
9570, 1973-086FX
Orbit
SSO
Country
Flag of USUS
Related business
Manufacturer
Unknown
Mission
Spacecraft
Bus & Motor
Unknown
Mass
Unknown
Launch date (UTC)
1973-11-06 (53 years ago)
Launch vehicle
Unknown
Launch site
Air Force Western Test Range (AFWTR)
Object type
Payload
Rocket body
Debris
Shape & HBR
Unknown shape, 0.1 m
Radar Cross Section
Medium (>0.1 m² and <1 m²)

Expand to show TLE details & history
Last TLE update: 1 day ago

TLE from 1 day ago
0 DELTA 1 DEB
1 09570U 73086FX  26206.31545293 -.00000045  00000-0 -73354-5 0  9991
2 09570 101.7437 146.0173 0067692 307.4693 207.8075 12.41296721382603
Epoch: 2026-07-25T07:34Z
TLE epoch observation values (Epoch: 2026-07-25T07:34:15.133Z)
Latitude
24.54833°
Longitude
-85.1533°
Altitude
1,551.032 km
Speed
7.072 km/s
True Right ascension
22h 05m 45s
True Declination
24° 25' 54"
Sunlit
Object was in full shadow at epoch
Visualization orbit readout
Latitude
Unknown
Longitude
Unknown
Altitude
Unknown
Speed
Unknown
Apparent Right ascension
Unknown
Apparent Declination
Unknown
Sunlit
N/A
Visualization observer readout
Local Sidereal Time
23:16:43
Azimuth
Unknown
Elevation
Unknown
Doppler factor
Unknown
Orbital elements
Apogee altitude
1,551.988 km
Perigee altitude
1,445.349 km
Semi-major axis
7,876.806 km
Eccentricity
0.00677
Inclination
101.7437°
RAAN
146.0173°
Arg. of periapsis
307.4693°
True anomaly
207.44833°
Mean anomaly
207.8075°
Eccentric anomaly
207.62765°
Mean motion
3.10469 °/min
Orbital period
115.95 mins
BSTAR
-0.0000073354
Loading maneuver chart data...
Computing Atmospheric mass density...
Loading historical data...
Loading historical data...
Loading historical data...
Loading historical data...
Loading historical data...
Loading historical data...
Loading historical data...

Documentation

Showing up to 5 results
|